STARLINK-33881, 63779

Orbit data source: Space-Track

STARLINK-33881, 63779 is a payload satellite owned by SpaceX/Seattle (US) in LEO that was launched on Fri, 02 May 2025 UTC via an FALCON 9 launch vehicle from the Air Force Eastern Test Range (AFETR). Payload-class satellites include a variety of spacecraft equipped with specific instruments for various scientific and technological missions. These include communications satellites like Starlink; space stations such as the ISS; scientific satellites like the Hubble; Earth observation satellites from companies like Planet Labs, Umbra, and HawkEye 360; GPS; miniature CubeSats for education and research; and military/defense satellites.

Loading next visibility...
Identifier
63779, 2025-091E
Orbit
LEO
Country
Flag of USUS
Related business
Manufacturer
SpaceX/Seattle
Mission
Operational Commercial Communications
Bus & Motor
STARLINK V2MO, Unknown motor
Mass
575 kg wet, ~530 kg dry
Launch date (UTC)
2025-05-02 (1 year ago)
Launch vehicle
FALCON 9
Launch site
Air Force Eastern Test Range (AFETR)
Object type
Payload
Rocket body
Debris
Shape & HBR
Box + 2 Pan, 17.7 m
Radar Cross Section
36.964 m², Large (>1 m²)

Expand to show TLE details & history
Last TLE update: 2 days ago

TLE from 2 days ago
0 STARLINK-33881
1 63779U 25091E   26170.14311881  .00011204  00000-0  41577-3 0  9997
2 63779  43.0008 199.9712 0001880 278.4731  81.5908 15.27600474 64418
Epoch: 2026-06-19T03:26Z
TLE epoch observation values (Epoch: 2026-06-19T03:26:05.465Z)
Latitude
0.00003°
Longitude
-118.92787°
Altitude
482.575 km
Speed
7.626 km/s
True Right ascension
13h 19m 53s
True Declination
0° 00' 00"
Sunlit
Object was in daylight at epoch
Visualization orbit readout
Latitude
Unknown
Longitude
Unknown
Altitude
Unknown
Speed
Unknown
Apparent Right ascension
Unknown
Apparent Declination
Unknown
Sunlit
N/A
Visualization observer readout
Local Sidereal Time
07:16:54
Azimuth
Unknown
Elevation
Unknown
Doppler factor
Unknown
Orbital elements
Apogee altitude
486.223 km
Perigee altitude
483.643 km
Semi-major axis
6,863.07 km
Eccentricity
0.00019
Inclination
43.0008°
RAAN
199.9712°
Arg. of periapsis
278.4731°
True anomaly
81.61211°
Mean anomaly
81.5908°
Eccentric anomaly
81.60146°
Mean motion
3.81738 °/min
Orbital period
94.31 mins
BSTAR
0.00041577
Loading maneuver chart data...
Computing Atmospheric mass density...
Loading historical data...
Loading historical data...
Loading historical data...
Loading historical data...
Loading historical data...
Loading historical data...
Loading historical data...

Documentation

Showing up to 5 results
|